Meath Environmental Platform

Observations for Trim Patrick St

Time AQI Temp °C Hum % Pres Pa CO μg/m³ H₂S μg/m³ NO μg/m³ NO₂ μg/m³ O₃ μg/m³ SO₂ μg/m³ PM1 μg/m³ PM2.5 μg/m³ PM10 μg/m³
Monday 3 August 2026
07:46 2 18.1 72 38,460 0.15 0 1.6 13.01 46.54 0 3.71 7.89 8.68
07:45 1 18.1 72 38,460 0.16 0 1.45 13.54 44.61 0 7.14 11.47 12.62
07:44 2 18 72 38,460 0.16 0 1.64 14.29 48.5 0 5.43 8.59 9.45
07:43 2 18 72 38,460 0.16 0 1.65 16.77 44.63 0 5.43 9.3 10.23
07:41 2 18 72 38,460 0.15 0 1.79 12.83 47.97 0 4.57 9.32 10.25
07:39 1 17.9 72 38,460 0.17 0 1.97 15.65 47.7 0 5.43 9.3 10.23
07:38 1 17.9 72 38,460 0.14 0 2.01 13.12 42.84 0 4.57 7.88 8.67
07:37 1 17.9 72 38,460 0.15 0 1.94 12.29 48.23 0 5.43 9.32 10.25
07:36 1 17.9 72 38,460 0.16 0 1.69 12.42 47.18 0 2.86 7.17 7.89
07:35 1 17.8 72 38,460 0.16 0 1.75 11.51 48.25 0 5.43 8.6 9.46
07:33 1 17.8 72 38,460 0.16 0 1.55 13.48 48.25 0 4.57 10.01 11.01
07:32 1 17.7 72 38,460 0.15 0 1.59 12.89 47.48 0 4.57 10.01 11.01
07:31 1 17.7 72 38,460 0.17 0 1.6 11.68 43.89 0 4.57 7.86 8.65
07:30 1 17.7 72 38,460 0.15 0 1.51 13.83 45.2 0 4.57 9.29 10.22
07:27 1 17.6 73 38,460 0.16 0 1.76 12.95 49.64 0 5.43 8.56 9.41
07:26 1 17.6 72 38,460 0.17 0 1.83 11.07 46.28 0 4.57 8.59 9.45
07:25 1 17.6 72 38,460 0.15 0 1.82 10.09 46.18 0 4.57 9.29 10.22
07:24 1 17.5 72 38,460 0.16 0 1.77 9.46 47.55 0 4.57 7.86 8.64
07:23 1 17.5 72 38,460 0.18 0 1.99 10.83 45.1 0 4.57 8.57 9.43
07:22 1 17.5 73 38,460 0.17 0 2.06 11.26 49.17 0 3.71 7.11 7.82